Regional Weather Roundup
Issued by NWS

Home | Current Version | Previous Version | Text Only | Print | Product List | Glossary Off
Versions: 1 2 3 4 5 6 7 8 9 10 11 12 13 14 15 16 17 18 19 20 21 22 23 24 25 26 27 28 29 30 31 32 33 34 35 36 37 38 39 40 41 42 43 44 45 46 47 48 49 50

000
ASUS43 KLOT 312310
RWRIL

ILLINOIS REGIONAL WEATHER ROUNDUP
NATIONAL WEATHER SERVICE CHICAGO/ROMEOVILLE IL
600 PM CDT THU JUL 31 2014

NOTE: "FAIR" INDICATES FEW OR NO CLOUDS BELOW 12,000 FEET WITH NO
SIGNIFICANT WEATHER AND/OR OBSTRUCTIONS TO VISIBILITY.

* THESE STATIONS ARE NOT UNDER NWS QUALITY CONTROL. THEY ALSO MAY NOT
  REPORT WEATHER SUCH AS PRECIPITATION OR FOG.

ILZ001-002-007-009-015-016-024-010000-
NORTHWEST ILLINOIS

CITY           SKY/WX    TMP DP  RH WIND       PRES   REMARKS
MOLINE         MOSUNNY   82  60  47 W7        30.03F HX  82
STERLING*      SUNNY     81  59  47 NW10      30.04S HX  81
SAVANNA*       SUNNY     81  54  39 W8        30.03S HX  81
$$

ILZ003-004-008-010-011-017-018-010000-
NORTH CENTRAL ILLINOIS

CITY           SKY/WX    TMP DP  RH WIND       PRES   REMARKS
ROCKFORD       MOSUNNY   80  58  46 W13       30.03F HX  80
FREEPORT*      SUNNY     78  58  50 W7        30.05S
ROCHELLE*      MOSUNNY   80  56  44 W12G17    30.04S HX  80
DE KALB*       MOSUNNY   77  58  51 W10G21    30.04S
PERU*          SUNNY     80  61  51 W8        30.04F HX  81
$$

ILZ005-006-012>014-019>023-010000-
NORTHEAST ILLINOIS

CITY           SKY/WX    TMP DP  RH WIND       PRES   REMARKS
CHICAGO-OHARE  MOSUNNY   82  53  36 W13       30.01S HX  81
CHICAGO-MIDWAY MOSUNNY   83  57  41 W12       30.01S HX  82
AURORA         SUNNY     79  60  52 W8        30.03S HX  80
LANSING*       MOSUNNY   78  59  52 SW10      30.03R HX  80
JOLIET*        SUNNY     80  56  44 W8        30.04S HX  80
WAUKEGAN       SUNNY     80  55  42 VRB5      30.00S HX  80
DUPAGE AIRPORT SUNNY     80  59  48 W13       30.02S HX  81
KANKAKEE*      PTSUNNY   79  63  57 SW6       30.05S HX  80
WHEELING       SUNNY     82  55  39 W13       30.02S HX  81
MORRIS*        MOSUNNY   80  64  58 W6        30.03F HX  82
ROMEOVILLE*    SUNNY     79  58  48 W12       30.03S HX  80
NORTHERLY ISL    N/A     81  54  39 NW6         N/A  HX  81
$$

LMZ740>746-010000-
SOUTHERN LAKE MICHIGAN

STATION/POSITION SKY/WX   TEMP    WIND        PRES    VSBY  WAVE
                          AIR SEA DIR/SP/G                  HT/PER
                          (F)     (DEG/KT/KT) (MB)    (MI)  (FT/S)
SOUTHERN BUOY              66 64  170/  8/  8 1015.9F         0
WAUKEGAN HARBOR            80     280/ 10/ 15   N/A
HARRISON CRIB              80     260/ 14/ 18   N/A
BURNHAM HARBOR             81     270/  4/ 14   N/A
CALUMET HARBOR             81     230/  7/ 12 1015.2R
MICHIGAN CITY              74     210/  5/  7   N/A
MICHIGAN CITY 6N           74 71  230/  4/  4   N/A           1
ST. JOSEPH                 72 69  150/  4/  4   N/A           1
$$

ILZ025>027-034>036-040-047-049-050-058-095>099-010000-
WEST-CENTRAL ILLINOIS

CITY           SKY/WX    TMP DP  RH WIND       PRES   REMARKS
QUINCY         SUNNY     79  57  46 NW6       30.06S HX  80
GALESBURG*     MOSUNNY   77  64  64 CALM      30.06S
MACOMB*        SUNNY     78  60  54 W5        30.08S HX  80
JACKSONVILLE*  SUNNY     82  62  51 CALM      30.07S HX  82
PITTSFIELD*    MOSUNNY   81  61  51 NE3       30.07S HX  81
$$

ILZ028>032-037-038-041>044-048-051>054-059>061-010000-
CENTRAL ILLINOIS

CITY           SKY/WX    TMP DP  RH WIND       PRES   REMARKS
PONTIAC        SUNNY     81  63  54 SW3       30.05S HX  82
DECATUR        PTSUNNY   79  61  53 NE5       30.06F HX  80
PEORIA         SUNNY     82  59  45 SW7       30.05F HX  82
LACON*         SUNNY     81  59  47 W5        30.03F HX  81
LINCOLN*       SUNNY     82  57  43 CALM      30.02F HX  82
SPRINGFIELD    MOSUNNY   83  61  47 NW5       30.06S HX  83
TAYLORVILLE    SUNNY     79  57  47 CALM      30.05F HX  80
$$

ILZ033-039-045-046-055>057-062-063-010000-
EAST-CENTRAL ILLINOIS

CITY           SKY/WX    TMP DP  RH WIND       PRES   REMARKS
CHAMPAIGN      SUNNY     79  58  48 W3        30.07S HX  80
DANVILLE*      SUNNY     77  62  58 W3        30.04F HAZE
RANTOUL*       SUNNY     80  59  50 W3        30.07F HX  80
MATTOON        SUNNY     80  60  50 N3        30.05F HX  81
PARIS*         SUNNY     79  63  56 CALM      30.07S HX  81
$$

ILZ079-100>102-010000-
SOUTHWEST ILLINOIS

CITY           SKY/WX    TMP DP  RH WIND       PRES   REMARKS
ALTON          MOSUNNY   82  59  44 VRB3      30.05F HX  82
BELLEVILLE     PTSUNNY   83  60  44 CALM      30.03F HX  83
CAHOKIA*       PTSUNNY   83  60  45 NE7       30.03F HX  83
SPARTA*        MOSUNNY   79  59  50 SE3       30.05F HX  80
$$

ILZ064>066-069>071-074>076-080>082-084>086-088>090-092>094-010000-
SOUTH-CENTRAL ILLINOIS

CITY           SKY/WX    TMP DP  RH WIND       PRES   REMARKS
CARBONDALE     LGT RAIN  78  66  66 S5        30.05F HX  80
CAIRO*         MOSUNNY   80  64  58 SW3       30.07S HX  81
EFFINGHAM*     RAIN      82  56  42 SE6       30.05F HX  81
MARION         MOSUNNY   81  64  57 SW8       30.07S HX  82
MT. VERNON     PTSUNNY   84  55  37 S5        30.06F HX  83
CENTRALIA*     MOSUNNY   89  55  30 S5        30.05F HX  87
METROPOLIS*    MOSUNNY   79  59  50 SW8       30.06S HX  80
$$

ILZ067-068-072-073-078-083-087-091-010000-
SOUTHEAST ILLINOIS

CITY           SKY/WX    TMP DP  RH WIND       PRES   REMARKS
LAWRENCEVILLE  SUNNY     81  61  50 W6        30.06S HX  82
FLORA*         SUNNY     79  60  50 SE5       30.06S HX  80
FAIRFIELD*     PTSUNNY   82  61  47 SW3       30.05F HX  83
HARRISBURG*    MOSUNNY   80  65  59 CALM      30.07S HX  81
ROBINSON*      SUNNY     80  64  58 CALM      30.07S HX  82
CARMI*         PTSUNNY   81  64  57 CALM      30.05S HX  82
$$

ABBREVIATIONS USED IN REMARKS
   TC - TEMPERATURE IN CELSIUS
  WCI - WIND CHILL INDEX
   HX - HEAT INDEX
  VSB - VISIBILITY
$$




USA.gov is the U.S. government's official web portal to all federal, state and local government web resources and services.